Погода во Фленсбурге

Германия     54°46′48″N   9°25′56″E
темп.,
°C
ветер,
м/с
пор.,
м/с
влажн.,
%
обл.,
%
осадки,
мм/ч
давл.,
гПа
погр.,
м
18 мая, вт
вт1823:00+8сз2493100 0.1 100582
02:00+6з34955 0.1 100671
05:00+5зюз35965 0.0 100779
08:00+9зюз469231 0.0 1008431
11:00+12з567559 0.5 10091184
14:00+13зсз566793 0.9 10101384
17:00+13зсз56675 0.2 10111350
20:00+10зсз47795 0.2 1012389
19 мая, ср
ср1923:00+6зсз34933 0.0 101359
02:00+5з33935 0.0 101333
05:00+4зюз33955 0.0 101340
08:00+9зюз24875 0.0 1013295
11:00+12зюз558099 1.0 10131099
14:00+13з566820 1.7 10131475
17:00+13з66654 0.1 10131234
20:00+10зсз47810 0.1 1014490
20 мая, чт
чт2023:00+6з36972 0.0 1015107
02:00+5з379761 0.0 1015130
05:00+5з499776 0.0 1016230
08:00+8з598397 0.0 1016868
11:00+11з79635 0.0 10171327
14:00+12з810615 0.0 10171350
17:00+11з796612 0.0 10171055
20:00+9зюз4781100 0.0 1016517
21 мая, пт
пт2123:00+6ююз3795100 0.0 1014146
02:00+7ююз41094100 0.0 1012273
05:00+8ю51294100 0.2 1009491
08:00+9ю71392100 0.4 1006683
11:00+12ююз8118760 0.4 1005935
14:00+13юз8118176 2.1 10031273
17:00+13юз698269 2.8 10021041
20:00+11ююз4985100 3.6 1001369
22 мая, сб
сб2223:00+8ю4109597 0.1 1000196
02:00+8ю5139498 0.4 999451
05:00+7ю7159765 0.1 998538
08:00+10ю81394100 0.2 9971022
11:00+9ююз91592100 2.1 9971100
14:00+9ююз91496100 3.4 997949
17:00+11юз9138926 1.1 9981086
20:00+9зюз9139069 1.4 1000905